PRPLR SBCH-SBPF

Flight info

Callsign PRPLR
Flight time N/A
Altitude 20000
Route TEGET DCT PF011/N0365F190
Aircraft E50P/L-SBDFGRWY/LB2

Departure

Time 2026-04-17 18:54
Airport Serafin Enoss Bertaso Airport (SBCH)

Arrival

Time N/A
Airport Lauro Kurtz Airport (SBPF)
Time Latitude Longitude Altitude Speed Heading
2026-04-17 18:30 -27.13265 -52.65940 2122 ft 0 kts 276°
2026-04-17 18:48 -27.13265 -52.65941 2122 ft 2 kts 272°
2026-04-17 18:48 -27.13265 -52.65946 2122 ft 0 kts 274°
2026-04-17 18:48 -27.13264 -52.65951 2122 ft 4 kts 274°
2026-04-17 18:49 -27.13264 -52.66021 2122 ft 12 kts 267°
2026-04-17 18:49 -27.13265 -52.66097 2122 ft 6 kts 214°
2026-04-17 18:49 -27.13290 -52.66102 2123 ft 6 kts 191°
2026-04-17 18:49 -27.13355 -52.66100 2125 ft 4 kts 129°
2026-04-17 18:50 -27.13364 -52.66039 2124 ft 14 kts 97°
2026-04-17 18:50 -27.13385 -52.65883 2125 ft 24 kts 99°
2026-04-17 18:50 -27.13413 -52.65695 2121 ft 27 kts 98°
2026-04-17 18:50 -27.13446 -52.65462 2119 ft 32 kts 89°
2026-04-17 18:51 -27.13479 -52.65225 2120 ft 30 kts 98°
2026-04-17 18:51 -27.13512 -52.64994 2120 ft 30 kts 99°
2026-04-17 18:51 -27.13559 -52.64890 2122 ft 6 kts 129°
2026-04-17 18:51 -27.13552 -52.64878 2122 ft 5 kts 18°
2026-04-17 18:52 -27.13520 -52.64920 2121 ft 10 kts 278°
2026-04-17 18:52 -27.13519 -52.64932 2121 ft 0 kts 278°
2026-04-17 18:52 -27.13516 -52.64957 2123 ft 20 kts 279°
2026-04-17 18:52 -27.13462 -52.65318 2120 ft 71 kts 278°
2026-04-17 18:53 -27.13362 -52.66020 2132 ft 108 kts 278°
2026-04-17 18:53 -27.13228 -52.66936 2254 ft 123 kts 277°
2026-04-17 18:53 -27.13100 -52.67935 2592 ft 142 kts 277°
2026-04-17 18:53 -27.12970 -52.69121 2752 ft 160 kts 275°
2026-04-17 18:54 -27.13263 -52.70243 3375 ft 149 kts 231°
2026-04-17 18:54 -27.14137 -52.70890 3830 ft 157 kts 207°
2026-04-17 18:54 -27.15223 -52.71155 4482 ft 160 kts 194°
2026-04-17 18:54 -27.16285 -52.71429 5259 ft 148 kts 201°
2026-04-17 18:55 -27.17245 -52.71706 6041 ft 142 kts 201°
2026-04-17 18:55 -27.18222 -52.71987 6591 ft 147 kts 201°
2026-04-17 18:55 -27.19206 -52.72274 7191 ft 145 kts 201°
2026-04-17 18:55 -27.20186 -52.72557 7802 ft 146 kts 202°
2026-04-17 18:56 -27.21155 -52.72843 8395 ft 146 kts 203°
2026-04-17 18:56 -27.22136 -52.73132 8994 ft 146 kts 203°
2026-04-17 18:56 -27.23102 -52.73417 9589 ft 145 kts 203°
2026-04-17 18:56 -27.24129 -52.73723 9924 ft 169 kts 202°
2026-04-17 18:57 -27.25299 -52.74075 9921 ft 179 kts 202°
2026-04-17 18:57 -27.26611 -52.74468 9930 ft 214 kts 200°
2026-04-17 18:57 -27.28143 -52.74916 9930 ft 232 kts 200°
2026-04-17 18:57 -27.29687 -52.75356 9930 ft 232 kts 200°
2026-04-17 18:58 -27.31247 -52.75818 9919 ft 232 kts 200°
2026-04-17 18:58 -27.32811 -52.76275 9918 ft 232 kts 200°
2026-04-17 18:58 -27.34371 -52.76734 9913 ft 231 kts 200°
2026-04-17 18:58 -27.35925 -52.77197 9905 ft 231 kts 200°
2026-04-17 18:59 -27.37482 -52.77653 9904 ft 231 kts 200°
2026-04-17 18:59 -27.39037 -52.78117 9902 ft 231 kts 200°
2026-04-17 18:59 -27.40599 -52.78570 9895 ft 231 kts 200°
2026-04-17 18:59 -27.42154 -52.79032 9896 ft 232 kts 200°
2026-04-17 19:00 -27.43691 -52.79488 9884 ft 232 kts 200°
2026-04-17 19:00 -27.45248 -52.79948 9884 ft 231 kts 200°
2026-04-17 19:00 -27.46800 -52.80406 9880 ft 230 kts 200°
2026-04-17 19:00 -27.48349 -52.80865 9882 ft 230 kts 200°
2026-04-17 19:01 -27.49898 -52.81320 9878 ft 230 kts 200°
2026-04-17 19:01 -27.51448 -52.81750 9874 ft 231 kts 195°
2026-04-17 19:01 -27.53079 -52.81754 9872 ft 238 kts 178°
2026-04-17 19:01 -27.54702 -52.81301 9872 ft 242 kts 167°
2026-04-17 19:02 -27.56308 -52.80761 9876 ft 241 kts 169°
2026-04-17 19:02 -27.57902 -52.80256 9880 ft 243 kts 169°
2026-04-17 19:02 -27.59576 -52.79705 9883 ft 252 kts 168°
2026-04-17 19:02 -27.61246 -52.79149 9882 ft 249 kts 168°
2026-04-17 19:03 -27.62905 -52.78606 9880 ft 247 kts 169°
2026-04-17 19:03 -27.64558 -52.78067 9880 ft 247 kts 169°
2026-04-17 19:03 -27.66199 -52.77522 9882 ft 245 kts 168°
2026-04-17 19:03 -27.67837 -52.76982 9880 ft 245 kts 168°
2026-04-17 19:04 -27.69466 -52.76434 9879 ft 244 kts 168°
2026-04-17 19:04 -27.71074 -52.75911 9879 ft 243 kts 169°
2026-04-17 19:04 -27.72693 -52.75384 9880 ft 242 kts 169°
2026-04-17 19:04 -27.74308 -52.74851 9878 ft 242 kts 169°
2026-04-17 19:05 -27.75924 -52.74319 9874 ft 242 kts 168°
2026-04-17 19:05 -27.77530 -52.73763 9880 ft 243 kts 163°
2026-04-17 19:05 -27.78897 -52.72617 9885 ft 252 kts 130°
2026-04-17 19:05 -27.79757 -52.70879 9880 ft 255 kts 117°
2026-04-17 19:06 -27.80553 -52.69096 9879 ft 254 kts 120°
2026-04-17 19:06 -27.81427 -52.67388 9863 ft 254 kts 122°
2026-04-17 19:06 -27.82317 -52.65663 9865 ft 254 kts 121°
2026-04-17 19:06 -27.83200 -52.63933 9872 ft 254 kts 122°
2026-04-17 19:07 -27.84074 -52.62194 9869 ft 255 kts 121°
2026-04-17 19:07 -27.84948 -52.60451 9869 ft 255 kts 122°
2026-04-17 19:07 -27.85827 -52.58714 9867 ft 255 kts 121°
2026-04-17 19:07 -27.86680 -52.57025 9864 ft 255 kts 122°
2026-04-17 19:08 -27.87559 -52.55286 9865 ft 255 kts 121°
2026-04-17 19:08 -27.88425 -52.53572 9868 ft 255 kts 122°
2026-04-17 19:08 -27.89302 -52.51834 9868 ft 255 kts 121°
2026-04-17 19:08 -27.90182 -52.50091 9871 ft 255 kts 121°